N28ZA KSNA-KLAX

Flight info

Callsign N28ZA
Flight time 0h 15m
Altitude 7000
Route SLI
Aircraft C510/L-G/S

Departure

Time 2026-04-25 18:51
Airport John Wayne Orange County International Airport (KSNA)

Arrival

Time 2026-04-25 19:07
Airport Los Angeles International Airport (KLAX)
Time Latitude Longitude Altitude Speed Heading
2026-04-25 18:37 33.67203 -117.86755 52 ft 0 kts 243°
2026-04-25 18:44 33.67202 -117.86757 52 ft 2 kts 236°
2026-04-25 18:45 33.67175 -117.86792 52 ft 6 kts 261°
2026-04-25 18:45 33.67207 -117.86817 52 ft 8 kts 24°
2026-04-25 18:45 33.67276 -117.86771 52 ft 13 kts 39°
2026-04-25 18:45 33.67362 -117.86681 49 ft 17 kts 27°
2026-04-25 18:46 33.67470 -117.86612 49 ft 16 kts 28°
2026-04-25 18:46 33.67568 -117.86551 48 ft 14 kts 27°
2026-04-25 18:46 33.67656 -117.86494 45 ft 14 kts 28°
2026-04-25 18:46 33.67745 -117.86438 45 ft 13 kts 28°
2026-04-25 18:47 33.67834 -117.86382 43 ft 15 kts 28°
2026-04-25 18:47 33.67942 -117.86313 42 ft 16 kts 28°
2026-04-25 18:47 33.68043 -117.86274 41 ft 13 kts 331°
2026-04-25 18:47 33.68068 -117.86314 42 ft 0 kts 297°
2026-04-25 18:48 33.68073 -117.86324 42 ft 6 kts 297°
2026-04-25 18:48 33.68112 -117.86412 42 ft 13 kts 297°
2026-04-25 18:48 33.68142 -117.86518 42 ft 12 kts 244°
2026-04-25 18:49 33.68119 -117.86537 42 ft 0 kts 208°
2026-04-25 18:51 33.68108 -117.86544 42 ft 16 kts 208°
2026-04-25 18:51 33.68035 -117.86590 43 ft 49 kts 207°
2026-04-25 18:51 33.66984 -117.87249 294 ft 123 kts 205°
2026-04-25 18:51 33.66047 -117.87472 809 ft 151 kts 186°
2026-04-25 18:52 33.64875 -117.87603 1387 ft 173 kts 186°
2026-04-25 18:52 33.63598 -117.87736 1921 ft 189 kts 186°
2026-04-25 18:52 33.62217 -117.87887 2461 ft 201 kts 186°
2026-04-25 18:52 33.60767 -117.88040 2983 ft 205 kts 186°
2026-04-25 18:53 33.59277 -117.88209 3503 ft 206 kts 186°
2026-04-25 18:53 33.57759 -117.88378 4029 ft 207 kts 186°
2026-04-25 18:53 33.56275 -117.88538 4536 ft 208 kts 186°
2026-04-25 18:53 33.54799 -117.88717 4914 ft 214 kts 193°
2026-04-25 18:54 33.53253 -117.91513 4975 ft 217 kts 282°
2026-04-25 18:54 33.54129 -117.93026 4983 ft 218 kts 324°
2026-04-25 18:54 33.55492 -117.93907 4980 ft 216 kts 330°
2026-04-25 18:55 33.56854 -117.94762 4975 ft 215 kts 331°
2026-04-25 18:55 33.58208 -117.95593 4977 ft 215 kts 331°
2026-04-25 18:55 33.59618 -117.96458 4983 ft 217 kts 331°
2026-04-25 18:55 33.61010 -117.97298 4981 ft 219 kts 334°
2026-04-25 18:56 33.62488 -117.97996 4981 ft 221 kts 337°
2026-04-25 18:56 33.63991 -117.98714 4982 ft 223 kts 336°
2026-04-25 18:56 33.65519 -117.99435 4980 ft 224 kts 337°
2026-04-25 18:56 33.67020 -118.00146 4975 ft 221 kts 337°
2026-04-25 18:57 33.68478 -118.00839 4974 ft 218 kts 336°
2026-04-25 18:57 33.69930 -118.01524 4976 ft 216 kts 336°
2026-04-25 18:57 33.71340 -118.02194 4976 ft 215 kts 337°
2026-04-25 18:57 33.71814 -118.02419 4976 ft 215 kts 336°
2026-04-25 18:58 33.74219 -118.03562 4976 ft 213 kts 337°
2026-04-25 18:58 33.77059 -118.04909 4979 ft 215 kts 336°
2026-04-25 18:58 33.78491 -118.05592 4975 ft 216 kts 336°
2026-04-25 18:59 33.81373 -118.06964 4969 ft 219 kts 337°
2026-04-25 18:59 33.84283 -118.08347 4967 ft 220 kts 337°
2026-04-25 19:00 33.87237 -118.09752 4968 ft 221 kts 337°
2026-04-25 19:00 33.88689 -118.10442 4970 ft 221 kts 338°
2026-04-25 19:01 33.91906 -118.10875 4489 ft 219 kts 355°
2026-04-25 19:01 33.93306 -118.11397 4455 ft 199 kts 324°
2026-04-25 19:01 33.94425 -118.12412 4183 ft 199 kts 321°
2026-04-25 19:01 33.95566 -118.13491 3692 ft 202 kts 314°
2026-04-25 19:02 33.96016 -118.16308 3611 ft 161 kts 262°
2026-04-25 19:02 33.95849 -118.17708 3441 ft 161 kts 259°
2026-04-25 19:02 33.95696 -118.19067 3228 ft 160 kts 260°
2026-04-25 19:03 33.95501 -118.20908 2944 ft 160 kts 261°
2026-04-25 19:03 33.95270 -118.23181 2581 ft 159 kts 261°
2026-04-25 19:03 33.95132 -118.24537 2364 ft 156 kts 261°
2026-04-25 19:04 33.94864 -118.27179 1933 ft 154 kts 261°
2026-04-25 19:04 33.94731 -118.28464 1725 ft 153 kts 260°
2026-04-25 19:05 33.94466 -118.31086 1298 ft 153 kts 261°
2026-04-25 19:05 33.94210 -118.33627 885 ft 147 kts 260°
2026-04-25 19:05 33.94096 -118.34857 704 ft 145 kts 261°
2026-04-25 19:06 33.93967 -118.36074 535 ft 144 kts 259°
2026-04-25 19:06 33.93721 -118.38454 130 ft 121 kts 259°
2026-04-25 19:06 33.93630 -118.39279 103 ft 79 kts 265°
2026-04-25 19:07 33.93557 -118.39988 113 ft 29 kts 258°
2026-04-25 19:07 33.93498 -118.40187 116 ft 17 kts 232°
2026-04-25 19:08 33.93423 -118.40140 116 ft 4 kts 84°
2026-04-25 19:08 33.93429 -118.40079 114 ft 11 kts 81°
2026-04-25 19:09 33.93480 -118.39580 107 ft 20 kts 83°
2026-04-25 19:09 33.93486 -118.39523 107 ft 20 kts 83°
2026-04-25 19:09 33.93387 -118.39343 103 ft 9 kts
2026-04-25 19:10 33.93397 -118.39343 103 ft 0 kts